User: anonymous   Login
Location: Unspecified
(0.0000°N, 0.0000°E)
Time: 08:20:41
(UTC+00:00)
Language:

BB 1 - Orbit

View from above orbital plane
View from above orbital plane
View from above satellite
View from above satellite

Ground track
Ground track

The orbit data is extracted from the following two-line orbital elements,

1 56171U 23050K   24205.90550893  .00000197  00000-0  18087-3 0  9996
2 56171  81.0027  20.2112 0015328 358.6384   1.4724 13.79349047 65909
Epoch (UTC): 23 July 2024 21:43:55
Eccentricity: 0.0015328
inclination: 81.0027°
perigee height: 955 km
apogee height: 977 km
right ascension of ascending node: 20.2112°
argument of perigee: 358.6384°
revolutions per day: 13.79349047
mean anomaly at epoch: 1.4724°
orbit number at epoch: 6590

The dashed part of the orbit path shows where the satellite is in the earth's shadow,  

DLR